Portada
METAR-TAF:

METAR-TAF

Aeroports :

Pittsburg, Kansas, Estats Units d'Amèrica

latitud: 37-26-58N, longitud: 094-43-52W, altitud: 290 m

Observació

L'informe es va fer fa 18 minuts, a les 18:55 UTC
Vent calma
Temperatura 30°C
Humitat 52%
Pressió 1024 hPa
Visibilitat: 16.1 km
Cel ennuvolat a una alçada de 6000 ft
Cel ennuvolat a una alçada de 7000 ft

METAR: KPTS 201855Z AUTO 00000KT 10SM BKN060 BKN070 30/19 A3024 RMK AO2 T02990185 PWINO

Hora: 14:13 (19:13 UTC)


TAF: manca

Observacions i pronòstics meteorològics de més de 4000 aeroports (METAR i TAF).

Les estacions disponibles són els punts grocs i vermells al mapa.

Posi el ratolí al punt desitjat per veure el nom de l'estació.

Feu clic per veure les observacions i els pronòstics meteorològics.

Per canviar el mapa: feu clic els botons verds amb una creu de color negre per apropar; al botó verd amb un guió per allunyar la imatge; o en les fletxes verdes per a mapes adjacents.


METAR-TAF: